Welcome to the New NWS' Forecast!
Most changes are behind the scenes, but click here for differences you might notice.

Regional Weather Roundup (RWR)

Issued by National Weather Service (NWS)

                            
000
ASUS46 KSEW 161210
RWRWA 

WASHINGTON REGIONAL WEATHER ROUNDUP
NATIONAL WEATHER SERVICE SEATTLE WA
400 AM PST FRI NOV 16 2018

NOTE:"FAIR" INDICATES FEW OR NO CLOUDS BELOW 12,000 FEET WITH NO 
SIGNIFICANT WEATHER AND/OR OBSTRUCTIONS TO VISIBILITY.

WAZ507-509-555>559-161300-
SEATTLE, TACOMA, EVERETT, AND VICINITY
  
CITY           SKY/WX    TMP DP  RH WIND       PRES   REMARKS
EVERETT        FOG       50  50 100 CALM      30.20S VSB 1/4          
6HR MIN TEMP:  50; 6HR MAX TEMP:  51; 6HR PCP:  0.05;                

BOEING FIELD   LGT RAIN  52  50  93 SE6       30.20S FOG              
6HR MIN TEMP:  52; 6HR MAX TEMP:  55; 6HR PCP:  0.01;                

RENTON         CLOUDY    52  50  93 CALM      30.20S                  
6HR MIN TEMP:  52; 6HR MAX TEMP:  56; 6HR PCP: TRACE;                

SEATAC AIRPORT CLOUDY    52  50  93 S5        30.20S FOG              
6HR MIN TEMP:  52; 6HR MAX TEMP:  54; 6HR PCP:  0.01;                

JBLM-MCCHORD   FOG       51  51 100 CALM      30.21R VSB 1/2          
6HR MIN TEMP:  51; 6HR MAX TEMP:  53; 6HR PCP:  0.02;                

PUYALLUP       DRZL/FOG  52  52 100 CALM      30.21R VSB 1            
BREMERTON      CLOUDY    50  49  96 CALM      30.20S                  
6HR MIN TEMP:  50; 6HR MAX TEMP:  51;                                

JBLM-FT LEWIS  LGT RAIN  51  51 100 CALM      30.20R FOG              
6HR MIN TEMP:  50; 6HR MAX TEMP:  53; 6HR PCP: TRACE;                

TACOMA NARROWS CLOUDY    50  50 100 S5        30.21S FOG              
6HR MIN TEMP:  50; 6HR MAX TEMP:  52; 6HR PCP: TRACE;                

$$
 
WAZ001-503-506-510-514-515-161300-
NORTH INTERIOR
  
CITY           SKY/WX    TMP DP  RH WIND       PRES   REMARKS
BELLINGHAM     CLOUDY    50  48  93 SE3       30.20S FOG              
6HR MIN TEMP:  50; 6HR MAX TEMP:  53; 6HR PCP:  0.02;                

FRIDAY HARBOR  CLOUDY    50  48  93 CALM      30.22S                  
6HR MIN TEMP:  50; 6HR MAX TEMP:  52; 6HR PCP: TRACE;                

EASTSOUND      CLOUDY    50  50 100 NW6       30.21R                  
PORT ANGELES   CLOUDY    50  50 100 CALM      30.22S FOG              
6HR MIN TEMP:  49; 6HR MAX TEMP:  55; 6HR PCP:  0.06;                

EDIZ HOOK      CLOUDY    49  49  99 SE5       30.22S FOG              
6HR MIN TEMP:  49; 6HR MAX TEMP:  53;                                

PORT TOWNSEND  CLOUDY    50  50 100 W6        30.20S                  
NAS WHIDBEY    CLOUDY    53  49  86 NW3       30.25R FOG              
6HR MIN TEMP:  53; 6HR MAX TEMP:  53; 6HR PCP:  0.02;                

ARLINGTON      LGT RAIN  49  49 100 N3        30.21R                  
6HR MIN TEMP:  49; 6HR MAX TEMP:  50; 6HR PCP:  0.18;                

BURLINGTON     CLOUDY    50  50 100 N3        30.22R FOG              
$$
 
WAZ020-022-039-040-504-511-512-161300-
SOUTHWEST INTERIOR
  
CITY           SKY/WX    TMP DP  RH WIND       PRES   REMARKS
SHELTON        CLOUDY    50  48  93 N7        30.17S                  
6HR MIN TEMP:  50; 6HR MAX TEMP:  54;                                

OLYMPIA        CLOUDY    52  49  89 SW9       30.19S                  
6HR MIN TEMP:  50; 6HR MAX TEMP:  52;                                

CHEHALIS       CLOUDY    50  48  93 VRB6      30.21F                  
KELSO          CLOUDY    48  46  93 S5        30.24F                  
6HR MIN TEMP:  42; 6HR MAX TEMP:  48;                                

VANCOUVER      CLOUDY    46  43  89 CALM      30.24S                  
6HR MIN TEMP:  41; 6HR MAX TEMP:  46;                                

SCAPPOOSE, OR  CLOUDY    46  43  89 CALM      30.23F FOG              
6HR MIN TEMP:  42; 6HR MAX TEMP:  46;                                

PORTLAND, OR   CLOUDY    45  43  93 SE3       30.25S                  
6HR MIN TEMP:  42; 6HR MAX TEMP:  46;                                

$$
 
WAZ021-516-517-161300-
WASHINGTON COAST
  
CITY           SKY/WX    TMP DP  RH WIND       PRES   REMARKS
FORKS          FOG       49  49 100 CALM      30.20S VSB 1/2          
6HR MIN TEMP:  49; 6HR MAX TEMP:  51; 6HR PCP:  0.12;                

HOQUIAM        FOG       55  55 100 W8        30.20F VSB 1/2          
6HR MIN TEMP:  53; 6HR MAX TEMP:  55; 6HR PCP:  0.02;                

ASTORIA, OR    CLOUDY    49  49 100 CALM      30.22F FOG              
6HR MIN TEMP:  46; 6HR MAX TEMP:  49;                                

$$
 
WAZ019-023-024-040-567>569-161300-
CASCADE MOUNTAINS AND COLUMBIA GORGE
  
CITY           SKY/WX    TMP DP  RH WIND       PRES   REMARKS
STAMPEDE PASS  NOT AVBL                                               
TROUTDALE, OR  CLOUDY    40  39  97 CALM      30.24F                  
6HR MIN TEMP:  38; 6HR MAX TEMP:  43;                                

HOOD RIVER, OR MOSUNNY   39  37  93 S3        30.17F                  
THE DALLES, OR MOCLDY    39  36  89 VRB5      30.16S                  
6HR MIN TEMP:  38; 6HR MAX TEMP:  43;                                

$$

WAZ026-027-041>044-520-521-161300-
EAST SLOPES
  
CITY           SKY/WX    TMP DP  RH WIND       PRES   REMARKS
OMAK           CLOUDY    38  36  92 NW12      30.18S                  
6HR MIN TEMP:  28; 6HR MAX TEMP:  39; 6HR PCP: TRACE;                

WENATCHEE      CLOUDY    35  33  92 E8        30.17R                  
6HR MIN TEMP:  32; 6HR MAX TEMP:  35;                                

ELLENSBURG     MOCLDY    50  41  71 NW7       30.11S                  
6HR MIN TEMP:  47; 6HR MAX TEMP:  51;                                

YAKIMA         CLOUDY    34  30  85 NW3       30.14S FOG              
6HR MIN TEMP:  31; 6HR MAX TEMP:  36;                                

SUNNYSIDE ARPT CLOUDY    35  33  95 CALM      30.14F FOG              
6HR MIN TEMP:  31; 6HR MAX TEMP:  35;                                

YAKIMA TC      PTSUNNY   34  31  87 CALM      30.11S                  
6HR MIN TEMP:  34; 6HR MAX TEMP:  38;                                

$$

WAZ028-034-035-161300-
COLUMBIA BASIN
  
CITY           SKY/WX    TMP DP  RH WIND       PRES   REMARKS
EPHRATA        MOCLDY    40  35  83 NW12      30.14S                  
6HR MIN TEMP:  35; 6HR MAX TEMP:  40;                                

MOSES LAKE     MOCLDY    36  34  92 CALM      30.15S FOG              
6HR MIN TEMP:  35; 6HR MAX TEMP:  38;                                

PASCO          CLOUDY    38  36  92 N7        30.14R FOG              
6HR MIN TEMP:  31; 6HR MAX TEMP:  40; 6HR PCP: TRACE;                

RICHLAND ARPT  CLOUDY    39  37  93 CALM      30.14  FOG              
6HR MIN TEMP:  37; 6HR MAX TEMP:  44;                                

HERMISTON, OR  CLOUDY    35  32  88 S5        30.13S                  
6HR MIN TEMP:  32; 6HR MAX TEMP:  36;                                

$$

WAZ036>038-161300-
NORTHEAST WASHINGTON
  
CITY           SKY/WX    TMP DP  RH WIND       PRES   REMARKS
SPOKANE GEIGER MOCLDY    35  33  92 W5        30.11S FOG              
6HR MIN TEMP:  35; 6HR MAX TEMP:  42; 6HR PCP:  0.01;                

SPOKANE FELTS  MOCLDY    38  36  92 CALM      30.12F FOG              
6HR MIN TEMP:  37; 6HR MAX TEMP:  44; 6HR PCP:  0.01;                

FAIRCHILD AFB  CLOUDY    36  36 100 NW5       30.10S                  
6HR MIN TEMP:  35; 6HR MAX TEMP:  40;                                

COEURDALENE,ID CLOUDY    39  37  92 S3        30.11F                  
6HR MIN TEMP:  39; 6HR MAX TEMP:  42; 6HR PCP: TRACE;                

DEER PARK      CLOUDY    35  34  96 W5        30.11S FOG              
6HR MIN TEMP:  33; 6HR MAX TEMP:  36;                                

$$

WAZ029>033-161300-
SOUTHEAST WASHINGTON
  
CITY           SKY/WX    TMP DP  RH WIND       PRES   REMARKS
PULLMAN        LGT RAIN  42  38  85 CALM      30.11S                  
6HR MIN TEMP:  40; 6HR MAX TEMP:  44; 6HR PCP:  0.01;                

LEWISTON, ID   MOCLDY    43  37  79 CALM      30.11S                  
6HR MIN TEMP:  41; 6HR MAX TEMP:  44; 6HR PCP: TRACE;                

WALLA WALLA    MOCLDY    50  37  61 S9        30.11F                  
6HR MIN TEMP:  44; 6HR MAX TEMP:  50;                                

PENDLETON, OR  MOCLDY    42  35  76 S8        30.12F                  
6HR MIN TEMP:  38; 6HR MAX TEMP:  43;                                

$$